Regional Weather Roundup
Issued by NWS

Home | Current Version | Previous Version | Graphics & Text | Print | Product List | Glossary On
Versions: 1 2 3 4 5 6 7 8 9 10 11 12 13 14 15 16 17 18 19 20 21 22 23 24 25 26 27 28 29 30 31 32 33 34 35 36 37 38 39 40 41 42 43 44 45 46 47 48 49 50
000
ASUS43 KIND 301559
RWRIN

WEATHER ROUNDUP FOR INDIANA
NATIONAL WEATHER SERVICE INDIANAPOLIS IN
1200 PM EDT SAT JUL 30 2016

NOTE: "FAIR" INDICATES FEW OR NO CLOUDS BELOW 12,000 FEET WITH NO
SIGNIFICANT WEATHER AND/OR OBSTRUCTIONS TO VISIBILITY.

* - STATION DOES NOT REPORT WEATHER SUCH AS PRECIPITATION OR FOG.

+ - STATION NOT QUALITY CONTROLLED BY THE NATIONAL WEATHER SERVICE.
    USE DATA WITH CAUTION...ESPECIALLY DEWPOINT AND RELATIVE
    HUMIDITY OBSERVATIONS.

INZ001>003-010>013-019-020-301700-
NORTHWEST INDIANA

CITY           SKY/WX    TMP DP  RH WIND       PRES   REMARKS
GARY /AIRPORT/ PTSUNNY   75  72  88 NE8       29.98S
KNOX *+        CLOUDY    72  64  78 NE6       29.97S
MONTICELLO +   CLOUDY    71  65  83 CALM      29.97R HAZE
RENSSELAER +   CLOUDY    70  70 100 CALM      29.97R

$$

LMZ046-743>745-301700-
SOUTHERN LAKE MICHIGAN

STATION/POSITION TIME  TEMP    WIND        PRES    WAVE
                       AIR SEA DIR/SP/G            HT
                 (UTC) (F)     (DEG/KT/KT) (MB)    (FT)
BURNS HARBOR     1508   66      80/ 11/ 14 1015.6R
MICHIGAN CITY    1500   65      30/  9/ 10   N/A
5NW MICH CITY    1500   68 72   80/ 10/ 14   N/A     3

$$

INZ004-005-014>016-021>024-301700-
NORTH CENTRAL INDIANA

CITY           SKY/WX    TMP DP  RH WIND       PRES   REMARKS
ELKHART        CLOUDY    70  63  78 E8        30.00S
GOSHEN         CLOUDY    71  62  73 N8        29.99S
PERU/GRISSOM   CLOUDY    73  70  88 NW1       29.96S
SOUTH BEND     CLOUDY    70  64  81 E7        30.00R
WARSAW +       CLOUDY    72  66  83 NE6       29.99R

$$

INZ006>009-017-018-025>027-301700-
NORTHEAST INDIANA

CITY           SKY/WX    TMP DP  RH WIND       PRES   REMARKS
ANGOLA *+        N/A     68  59  73 N5        29.99S
FORT WAYNE     CLOUDY    76  68  76 N6        29.98R

$$

INZ028-029-035-036-043>045-051>053-301700-
WEST CENTRAL INDIANA

CITY           SKY/WX    TMP DP  RH WIND       PRES   REMARKS
CRAWFORDSVL +  PTSUNNY   76  69  77 W5        29.98R
GREENCASTLE +  SUNNY     79  72  78 W5        29.99R
LAFAYETTE      CLOUDY    74  70  87 NW5       29.97R
TERRE HAUTE    SUNNY     81  66  60 W8        29.98R

$$

INZ030>032-037>040-046>048-054>057-064-065-301700-
CENTRAL INDIANA

CITY           SKY/WX    TMP DP  RH WIND       PRES   REMARKS
ANDERSON       PTSUNNY   79  70  73 W6        29.97S
COLUMBUS       MOSUNNY   79  72  78 W6        29.98R
INDIANAPOLIS   MOSUNNY   81  65  58 SW9       29.97S
-EAGLE CREEK   SUNNY     81  63  54 W7        29.96S
KOKOMO *+      CLOUDY    72  66  83 NW3       29.97S
SHELBYVILLE    PTSUNNY   82  68  62 W10       29.97R
ZIONSVILLE +   MOSUNNY   78  69  73 W9        29.98S

$$

INZ033-034-041-042-049-050-058-059-301700-
EAST CENTRAL INDIANA

CITY           SKY/WX    TMP DP  RH WIND       PRES   REMARKS
MUNCIE         MOSUNNY   79  71  76 W6        29.97S

$$

INZ060-061-067>069-081>083-085>088-301700-
SOUTHWEST INDIANA

CITY           SKY/WX    TMP DP  RH WIND       PRES   REMARKS
EVANSVILLE     PTSUNNY   82  71  69 W8        29.98S
HUNTINGBURG *+ CLOUDY    82  72  69 S8        29.97F
WASHINGTON +   PTSUNNY   79  71  76 MISG      29.98R

$$

INZ062-063-066-070>080-084-089>092-301700-
SOUTH CENTRAL AND SOUTHEAST INDIANA

CITY           SKY/WX    TMP DP  RH WIND       PRES   REMARKS
BLOOMINGTON    MOSUNNY   80  67  64 VRB7      29.99R
MADISON *+     PTSUNNY   81  66  61 NW5       30.02R
SEYMOUR +      CLOUDY    82  72  69 NW8       29.98S

$$




USA.gov is the U.S. government's official web portal to all federal, state and local government web resources and services.